Year,Month,Day,Hour,Minute,Value (Times are PST for temperature in C)
2009,04,30,08,04,10.70
2009,04,30,08,05,10.80
2009,04,30,08,06,10.80
2009,04,30,08,07,10.80
2009,04,30,08,08,10.90
2009,04,30,08,09,10.90
2009,04,30,08,10,11.00
2009,04,30,08,11,11.00
2009,04,30,08,12,11.10
2009,04,30,08,13,11.10
2009,04,30,08,14,11.10
2009,04,30,08,15,11.10
2009,04,30,08,16,11.10
2009,04,30,08,17,11.10
2009,04,30,08,18,11.10
2009,04,30,08,19,11.20
2009,04,30,08,20,11.20
2009,04,30,08,21,11.20
2009,04,30,08,22,11.20
2009,04,30,08,23,11.20
2009,04,30,08,24,11.20
2009,04,30,08,25,11.20
2009,04,30,08,26,11.20
2009,04,30,08,27,11.20
2009,04,30,08,28,11.20
2009,04,30,08,29,11.20
2009,04,30,08,30,11.20
2009,04,30,08,31,11.20
2009,04,30,08,32,11.30
2009,04,30,08,33,11.40
2009,04,30,08,34,11.40
2009,04,30,08,35,11.50
2009,04,30,08,36,11.60
2009,04,30,08,37,11.60
2009,04,30,08,38,11.60
2009,04,30,08,39,11.60
2009,04,30,08,40,11.70
2009,04,30,08,41,11.70
2009,04,30,08,42,11.70
2009,04,30,08,43,11.70
2009,04,30,08,44,11.70
2009,04,30,08,45,11.70
2009,04,30,08,46,11.70
2009,04,30,08,47,11.70
2009,04,30,08,48,11.70
2009,04,30,08,49,11.70
2009,04,30,08,50,11.70
2009,04,30,08,51,11.70
2009,04,30,08,52,11.70
2009,04,30,08,53,11.70
2009,04,30,08,54,11.70
2009,04,30,08,55,11.70
2009,04,30,08,56,11.70
2009,04,30,08,57,11.70
2009,04,30,08,58,11.70
2009,04,30,08,59,11.70
2009,04,30,09,00,11.70
2009,04,30,09,01,11.70
2009,04,30,09,02,11.60
2009,04,30,09,03,11.60
2009,04,30,09,04,11.60
2009,04,30,09,05,11.60
2009,04,30,09,06,11.60
2009,04,30,09,07,11.60
2009,04,30,09,08,11.60
2009,04,30,09,09,11.60
2009,04,30,09,10,11.70
2009,04,30,09,11,11.60
2009,04,30,09,12,11.60
2009,04,30,09,13,11.60
2009,04,30,09,14,11.60
2009,04,30,09,15,11.60
2009,04,30,09,16,11.50
2009,04,30,09,17,11.50
2009,04,30,09,18,11.50
2009,04,30,09,19,11.60
2009,04,30,09,20,11.60
2009,04,30,09,21,11.60
2009,04,30,09,22,11.70
2009,04,30,09,23,11.70
2009,04,30,09,24,11.70
2009,04,30,09,25,11.80
2009,04,30,09,26,11.80
2009,04,30,09,27,11.70
2009,04,30,09,28,11.60
2009,04,30,09,29,11.50
2009,04,30,09,30,11.50
2009,04,30,09,31,11.40
2009,04,30,09,32,11.40
2009,04,30,09,33,11.30
2009,04,30,09,34,11.30
2009,04,30,09,35,11.30
2009,04,30,09,36,11.30
2009,04,30,09,37,11.30
2009,04,30,09,38,11.30
2009,04,30,09,39,11.30
2009,04,30,09,40,11.30
2009,04,30,09,41,11.20
2009,04,30,09,42,11.20
2009,04,30,09,43,11.20
2009,04,30,09,44,11.20
2009,04,30,09,45,11.20
2009,04,30,09,46,11.20
2009,04,30,09,47,11.20
2009,04,30,09,48,11.20
2009,04,30,09,49,11.20
2009,04,30,09,50,11.20
2009,04,30,09,51,11.20
2009,04,30,09,52,11.20
2009,04,30,09,53,11.20
2009,04,30,09,54,11.10
2009,04,30,09,55,11.10
2009,04,30,09,56,11.10
2009,04,30,09,57,11.00
2009,04,30,09,58,11.00
2009,04,30,09,59,11.10
2009,04,30,10,00,11.10
2009,04,30,10,01,11.10
2009,04,30,10,02,11.20
2009,04,30,10,03,11.30
2009,04,30,10,04,11.40
2009,04,30,10,05,11.40
2009,04,30,10,06,11.40
2009,04,30,10,07,11.40
2009,04,30,10,08,11.40
2009,04,30,10,09,11.30
2009,04,30,10,10,11.30
2009,04,30,10,11,11.30
2009,04,30,10,12,11.20
2009,04,30,10,13,11.20
2009,04,30,10,14,11.20
2009,04,30,10,15,11.10
2009,04,30,10,16,11.10
2009,04,30,10,17,11.20
2009,04,30,10,18,11.20
2009,04,30,10,19,11.20
2009,04,30,10,20,11.20
2009,04,30,10,21,11.30
2009,04,30,10,22,11.30
2009,04,30,10,23,11.30
2009,04,30,10,24,11.40
2009,04,30,10,25,11.50
2009,04,30,10,26,11.50
2009,04,30,10,27,11.60
2009,04,30,10,28,11.60
2009,04,30,10,29,11.60
2009,04,30,10,30,11.70
2009,04,30,10,31,11.70
2009,04,30,10,32,11.70
2009,04,30,10,33,11.70
2009,04,30,10,34,11.80
2009,04,30,10,35,11.80
2009,04,30,10,36,11.80
2009,04,30,10,37,11.80
2009,04,30,10,38,11.80
2009,04,30,10,39,11.90
2009,04,30,10,40,11.90
2009,04,30,10,41,11.90
2009,04,30,10,42,12.00
2009,04,30,10,43,12.00
2009,04,30,10,44,12.00
2009,04,30,10,45,12.10
2009,04,30,10,46,12.10
2009,04,30,10,47,12.10
2009,04,30,10,48,12.20
2009,04,30,10,49,12.20
2009,04,30,10,50,12.20
2009,04,30,10,51,12.30
2009,04,30,10,52,12.20
2009,04,30,10,53,12.20
2009,04,30,10,54,12.30
2009,04,30,10,55,12.30
2009,04,30,10,56,12.40
2009,04,30,10,57,12.40
2009,04,30,10,58,12.50
2009,04,30,10,59,12.50
2009,04,30,11,00,12.50
2009,04,30,11,01,12.60
2009,04,30,11,02,12.60
2009,04,30,11,03,12.60
2009,04,30,11,04,12.60
2009,04,30,11,05,12.60
2009,04,30,11,06,12.60
2009,04,30,11,07,12.50
2009,04,30,11,08,12.50
2009,04,30,11,09,12.40
2009,04,30,11,10,12.50
2009,04,30,11,11,12.50
2009,04,30,11,12,12.50
2009,04,30,11,13,12.60
2009,04,30,11,14,12.60
2009,04,30,11,15,12.60
2009,04,30,11,16,12.60
2009,04,30,11,17,12.70
2009,04,30,11,18,12.80
2009,04,30,11,19,12.80
2009,04,30,11,20,12.80
2009,04,30,11,21,12.80
2009,04,30,11,22,12.80
2009,04,30,11,23,12.70
2009,04,30,11,24,12.60
2009,04,30,11,25,12.60
2009,04,30,11,26,12.60
2009,04,30,11,27,12.60
2009,04,30,11,28,12.60
2009,04,30,11,29,12.60
2009,04,30,11,30,12.70
2009,04,30,11,31,12.70
2009,04,30,11,32,12.70
2009,04,30,11,33,12.70
2009,04,30,11,34,12.70
2009,04,30,11,35,12.60
2009,04,30,11,36,12.60
2009,04,30,11,37,12.60
2009,04,30,11,38,12.60
2009,04,30,11,39,12.70
2009,04,30,11,40,12.70
2009,04,30,11,41,12.70
2009,04,30,11,42,12.70
2009,04,30,11,43,12.70
2009,04,30,11,44,12.80
2009,04,30,11,45,12.80
2009,04,30,11,46,12.80
2009,04,30,11,47,12.80
2009,04,30,11,48,12.80
2009,04,30,11,49,12.80
2009,04,30,11,50,12.90
2009,04,30,11,51,13.00
2009,04,30,11,52,13.00
2009,04,30,11,53,13.10
2009,04,30,11,54,13.10
2009,04,30,11,55,13.20
2009,04,30,11,56,13.30
2009,04,30,11,57,13.30
2009,04,30,11,58,13.30
2009,04,30,11,59,13.30
2009,04,30,12,00,13.30
2009,04,30,12,01,13.40
2009,04,30,12,02,13.50
2009,04,30,12,03,13.50
2009,04,30,12,04,13.50
2009,04,30,12,05,13.50
2009,04,30,12,06,13.40
2009,04,30,12,07,13.40
2009,04,30,12,08,13.40
2009,04,30,12,09,13.40
2009,04,30,12,10,13.40
2009,04,30,12,11,13.50
2009,04,30,12,12,13.50
2009,04,30,12,13,13.50
2009,04,30,12,14,13.60
2009,04,30,12,15,13.70
2009,04,30,12,16,13.80
2009,04,30,12,17,13.80
2009,04,30,12,18,13.90
2009,04,30,12,19,13.90
2009,04,30,12,20,13.90
2009,04,30,12,21,13.90
2009,04,30,12,22,13.90
2009,04,30,12,23,13.90
2009,04,30,12,24,14.00
2009,04,30,12,25,14.00
2009,04,30,12,26,14.10
2009,04,30,12,27,14.10
2009,04,30,12,28,14.20
2009,04,30,12,29,14.30
2009,04,30,12,30,14.30
2009,04,30,12,31,14.30
2009,04,30,12,32,14.30
2009,04,30,12,33,14.30
2009,04,30,12,34,14.30
2009,04,30,12,35,14.30
2009,04,30,12,36,14.30
2009,04,30,12,37,14.30
2009,04,30,12,38,14.30
2009,04,30,12,39,14.30
2009,04,30,12,40,14.30
2009,04,30,12,41,14.20
2009,04,30,12,42,14.20
2009,04,30,12,43,14.10
2009,04,30,12,44,14.10
2009,04,30,12,45,14.10
2009,04,30,12,46,14.10
2009,04,30,12,47,14.10
2009,04,30,12,48,14.10
2009,04,30,12,49,14.10
2009,04,30,12,50,14.10
2009,04,30,12,51,14.10
2009,04,30,12,52,14.10
2009,04,30,12,53,14.10
2009,04,30,12,54,14.10
2009,04,30,12,55,14.10
2009,04,30,12,56,14.10
2009,04,30,12,57,14.10
2009,04,30,12,58,14.10
2009,04,30,12,59,14.10
2009,04,30,13,00,14.10
2009,04,30,13,01,14.10
2009,04,30,13,02,14.10
2009,04,30,13,03,14.10
2009,04,30,13,04,14.10
2009,04,30,13,05,14.10
2009,04,30,13,06,14.10
2009,04,30,13,07,14.10
2009,04,30,13,08,14.10
2009,04,30,13,09,14.10
2009,04,30,13,10,14.20
2009,04,30,13,11,14.10
2009,04,30,13,12,14.10
2009,04,30,13,13,14.10
2009,04,30,13,14,14.10
2009,04,30,13,15,14.20
2009,04,30,13,16,14.20
2009,04,30,13,17,14.20
2009,04,30,13,18,14.20
2009,04,30,13,19,14.20
2009,04,30,13,20,14.10
2009,04,30,13,21,14.10
2009,04,30,13,22,14.10
2009,04,30,13,23,14.00
2009,04,30,13,24,14.00
2009,04,30,13,25,14.00
2009,04,30,13,26,14.10
2009,04,30,13,27,14.10
2009,04,30,13,28,14.10
2009,04,30,13,29,14.10
2009,04,30,13,30,14.10
2009,04,30,13,31,14.10
2009,04,30,13,32,14.00
2009,04,30,13,33,14.00
2009,04,30,13,34,13.90
2009,04,30,13,35,13.90
2009,04,30,13,36,13.90
2009,04,30,13,37,14.00
2009,04,30,13,38,14.00
2009,04,30,13,39,14.10
2009,04,30,13,40,14.10
2009,04,30,13,41,14.10
2009,04,30,13,42,14.10
2009,04,30,13,43,14.10
2009,04,30,13,44,14.20
2009,04,30,13,45,14.20
2009,04,30,13,46,14.20
2009,04,30,13,47,14.20
2009,04,30,13,48,14.20
2009,04,30,13,49,14.20
2009,04,30,13,50,14.20
2009,04,30,13,51,14.20
2009,04,30,13,52,14.20
2009,04,30,13,53,14.20
2009,04,30,13,54,14.30
2009,04,30,13,55,14.30
2009,04,30,13,56,14.30
2009,04,30,13,57,14.30
2009,04,30,13,58,14.40
2009,04,30,13,59,14.40
2009,04,30,14,00,14.50
2009,04,30,14,01,14.50
2009,04,30,14,02,14.50
2009,04,30,14,03,14.50
2009,04,30,14,04,14.50
2009,04,30,14,05,14.50
2009,04,30,14,06,14.60
2009,04,30,14,07,14.60
2009,04,30,14,08,14.60
2009,04,30,14,09,14.50
2009,04,30,14,10,14.40
2009,04,30,14,11,14.40
2009,04,30,14,12,14.40
2009,04,30,14,13,14.50
2009,04,30,14,14,14.60
2009,04,30,14,15,14.70
2009,04,30,14,16,14.70
2009,04,30,14,17,14.80
2009,04,30,14,18,14.80
2009,04,30,14,19,14.90
2009,04,30,14,20,14.90
2009,04,30,14,21,15.00
2009,04,30,14,22,15.00
2009,04,30,14,23,15.00
2009,04,30,14,24,15.00
2009,04,30,14,25,15.00
2009,04,30,14,26,15.00
2009,04,30,14,27,15.10
2009,04,30,14,28,15.10
2009,04,30,14,29,15.10
2009,04,30,14,30,15.10
2009,04,30,14,31,15.10
2009,04,30,14,32,15.10
2009,04,30,14,33,15.20
2009,04,30,14,34,15.20
2009,04,30,14,35,15.10
2009,04,30,14,36,15.10
2009,04,30,14,37,15.00
2009,04,30,14,38,15.00
2009,04,30,14,39,15.00
2009,04,30,14,40,15.00
2009,04,30,14,41,15.00
2009,04,30,14,42,15.10
2009,04,30,14,43,15.20
2009,04,30,14,44,15.20
2009,04,30,14,45,15.30
2009,04,30,14,46,15.30
2009,04,30,14,47,15.30
2009,04,30,14,48,15.30
2009,04,30,14,49,15.40
2009,04,30,14,50,15.40
2009,04,30,14,51,15.30
2009,04,30,14,52,15.40
2009,04,30,14,53,15.40
2009,04,30,14,54,15.50
2009,04,30,14,55,15.50
2009,04,30,14,56,15.50
2009,04,30,14,57,15.50
2009,04,30,14,58,15.60
2009,04,30,14,59,15.60
2009,04,30,15,00,15.60
2009,04,30,15,01,15.60
2009,04,30,15,02,15.60
2009,04,30,15,03,15.60
2009,04,30,15,04,15.70
2009,04,30,15,05,15.70
2009,04,30,15,06,15.70
2009,04,30,15,07,15.80
2009,04,30,15,08,15.80
2009,04,30,15,09,15.80
2009,04,30,15,10,15.80
2009,04,30,15,11,15.70
2009,04,30,15,12,15.70
2009,04,30,15,13,15.70
2009,04,30,15,14,15.70
2009,04,30,15,15,15.70
2009,04,30,15,16,15.70
2009,04,30,15,17,15.80
2009,04,30,15,18,15.80
2009,04,30,15,19,15.80
2009,04,30,15,20,15.70
2009,04,30,15,21,15.70
2009,04,30,15,22,15.80
2009,04,30,15,23,15.80
2009,04,30,15,24,15.90
2009,04,30,15,25,15.90
2009,04,30,15,26,15.90
2009,04,30,15,27,15.90
2009,04,30,15,28,16.00
2009,04,30,15,29,16.00
2009,04,30,15,30,16.00
2009,04,30,15,31,16.00
2009,04,30,15,32,16.00
2009,04,30,15,33,16.10
2009,04,30,15,34,16.20
2009,04,30,15,35,16.20
2009,04,30,15,36,16.30
2009,04,30,15,37,16.30
2009,04,30,15,38,16.30
2009,04,30,15,39,16.30
2009,04,30,15,40,16.30
2009,04,30,15,41,16.30
2009,04,30,15,42,16.20
2009,04,30,15,43,16.20
2009,04,30,15,44,16.30
2009,04,30,15,45,16.30
2009,04,30,15,46,16.40
2009,04,30,15,47,16.40
2009,04,30,15,48,16.40
2009,04,30,15,49,16.40
2009,04,30,15,50,16.30
2009,04,30,15,51,16.30
2009,04,30,15,52,16.30
2009,04,30,15,53,16.30
2009,04,30,15,54,16.30
2009,04,30,15,55,16.30
2009,04,30,15,56,16.20
2009,04,30,15,57,16.30
2009,04,30,15,58,16.30
2009,04,30,15,59,16.30
2009,04,30,16,00,16.30
2009,04,30,16,01,16.30
2009,04,30,16,02,16.30
2009,04,30,16,03,16.20
2009,04,30,16,04,16.30
2009,04,30,16,05,16.30
2009,04,30,16,06,16.30
2009,04,30,16,07,16.40
2009,04,30,16,08,16.40
2009,04,30,16,09,16.50
2009,04,30,16,10,16.50
2009,04,30,16,11,16.60
2009,04,30,16,12,16.60
2009,04,30,16,13,16.60
2009,04,30,16,14,16.60
2009,04,30,16,15,16.50
2009,04,30,16,16,16.50
2009,04,30,16,17,16.50
2009,04,30,16,18,16.50
2009,04,30,16,19,16.50
2009,04,30,16,20,16.60
2009,04,30,16,21,16.60
2009,04,30,16,22,16.50
2009,04,30,16,23,16.50
2009,04,30,16,24,16.60
2009,04,30,16,25,16.60
2009,04,30,16,26,16.60
2009,04,30,16,27,16.60
2009,04,30,16,28,16.60
2009,04,30,16,29,16.60
2009,04,30,16,30,16.60
2009,04,30,16,31,16.60
2009,04,30,16,32,16.50
2009,04,30,16,33,16.40
2009,04,30,16,34,16.40
2009,04,30,16,35,16.30
2009,04,30,16,36,16.30
2009,04,30,16,37,16.20
2009,04,30,16,38,16.20
2009,04,30,16,39,16.30
2009,04,30,16,40,16.30
2009,04,30,16,41,16.40
2009,04,30,16,42,16.40
2009,04,30,16,43,16.50
2009,04,30,16,44,16.60
2009,04,30,16,45,16.60
2009,04,30,16,46,16.60
2009,04,30,16,47,16.60
2009,04,30,16,48,16.60
2009,04,30,16,49,16.70
2009,04,30,16,50,16.70
2009,04,30,16,51,16.70
2009,04,30,16,52,16.80
2009,04,30,16,53,16.80
2009,04,30,16,54,16.80
2009,04,30,16,55,16.80
2009,04,30,16,56,16.80
2009,04,30,16,57,16.80
2009,04,30,16,58,16.80
2009,04,30,16,59,16.80
2009,04,30,17,00,16.80
2009,04,30,17,01,16.80
2009,04,30,17,02,16.80
2009,04,30,17,03,16.80
2009,04,30,17,04,16.80
2009,04,30,17,05,16.80
2009,04,30,17,06,16.70
2009,04,30,17,07,16.70
2009,04,30,17,08,16.70
2009,04,30,17,09,16.60
2009,04,30,17,10,16.50
2009,04,30,17,11,16.40
2009,04,30,17,12,16.30
2009,04,30,17,13,16.30
2009,04,30,17,14,16.20
2009,04,30,17,15,16.20
2009,04,30,17,16,16.20
2009,04,30,17,17,16.20
2009,04,30,17,18,16.30
2009,04,30,17,19,16.30
2009,04,30,17,20,16.30
2009,04,30,17,21,16.30
2009,04,30,17,22,16.30
2009,04,30,17,23,16.30
2009,04,30,17,24,16.20
2009,04,30,17,25,16.20
2009,04,30,17,26,16.20
2009,04,30,17,27,16.30
2009,04,30,17,28,16.30
2009,04,30,17,29,16.30
2009,04,30,17,30,16.30
2009,04,30,17,31,16.30
2009,04,30,17,32,16.30
2009,04,30,17,33,16.40
2009,04,30,17,34,16.40
2009,04,30,17,35,16.40
2009,04,30,17,36,16.40
2009,04,30,17,37,16.40
2009,04,30,17,38,16.40
2009,04,30,17,39,16.40
2009,04,30,17,40,16.50
2009,04,30,17,41,16.50
2009,04,30,17,42,16.60
2009,04,30,17,43,16.60
2009,04,30,17,44,16.70
2009,04,30,17,45,16.80
2009,04,30,17,46,16.80
2009,04,30,17,47,16.90
2009,04,30,17,48,16.90
2009,04,30,17,49,17.00
2009,04,30,17,50,17.00
2009,04,30,17,51,17.00
2009,04,30,17,52,17.00
2009,04,30,17,53,17.00
2009,04,30,17,54,16.90
2009,04,30,17,55,16.90
2009,04,30,17,56,16.90
2009,04,30,17,57,16.80
2009,04,30,17,58,16.70
2009,04,30,17,59,16.70
2009,04,30,18,00,16.60
2009,04,30,18,01,16.60
2009,04,30,18,02,16.60
2009,04,30,18,03,16.60
2009,04,30,18,04,16.60
2009,04,30,18,05,16.60
2009,04,30,18,06,16.60
2009,04,30,18,07,16.60
2009,04,30,18,08,16.60
2009,04,30,18,09,16.60
2009,04,30,18,10,16.50
2009,04,30,18,11,16.50
2009,04,30,18,12,16.50
2009,04,30,18,13,16.60
2009,04,30,18,14,16.60
2009,04,30,18,15,16.60
2009,04,30,18,16,16.60
2009,04,30,18,17,16.60
2009,04,30,18,18,16.60
2009,04,30,18,19,16.50
2009,04,30,18,20,16.50
2009,04,30,18,21,16.40
2009,04,30,18,22,16.30
2009,04,30,18,23,16.30
2009,04,30,18,24,16.20
2009,04,30,18,25,16.20
2009,04,30,18,26,16.10
2009,04,30,18,27,16.10
2009,04,30,18,28,16.10
2009,04,30,18,29,16.10
2009,04,30,18,30,16.00
2009,04,30,18,31,15.90
2009,04,30,18,32,15.90
2009,04,30,18,33,15.90
2009,04,30,18,34,15.80
2009,04,30,18,35,15.70
2009,04,30,18,36,15.70
2009,04,30,18,37,15.60
2009,04,30,18,38,15.60
2009,04,30,18,39,15.50
2009,04,30,18,40,15.50
2009,04,30,18,41,15.50
2009,04,30,18,42,15.60
2009,04,30,18,43,15.60
2009,04,30,18,44,15.60
2009,04,30,18,45,15.60
2009,04,30,18,46,15.60
2009,04,30,18,47,15.60
2009,04,30,18,48,15.60
2009,04,30,18,49,15.60
2009,04,30,18,50,15.60
2009,04,30,18,51,15.70
2009,04,30,18,52,15.70
2009,04,30,18,53,15.70
2009,04,30,18,54,15.70
2009,04,30,18,55,15.70
2009,04,30,18,56,15.70
2009,04,30,18,57,15.70
2009,04,30,18,58,15.70
2009,04,30,18,59,15.70
2009,04,30,19,00,15.60
2009,04,30,19,01,15.60
2009,04,30,19,02,15.60
2009,04,30,19,03,15.60
2009,04,30,19,04,15.60
2009,04,30,19,05,15.60
2009,04,30,19,06,15.70
2009,04,30,19,07,15.70
2009,04,30,19,08,15.70
2009,04,30,19,09,15.60
2009,04,30,19,10,15.60
2009,04,30,19,11,15.60
2009,04,30,19,12,15.50
2009,04,30,19,13,15.50
2009,04,30,19,14,15.40
2009,04,30,19,15,15.40
2009,04,30,19,16,15.40
2009,04,30,19,17,15.40
2009,04,30,19,18,15.40
2009,04,30,19,19,15.50
2009,04,30,19,20,15.50
2009,04,30,19,21,15.50
2009,04,30,19,22,15.60
2009,04,30,19,23,15.60
2009,04,30,19,24,15.60
2009,04,30,19,25,15.60
2009,04,30,19,26,15.60
2009,04,30,19,27,15.60
2009,04,30,19,28,15.60
2009,04,30,19,29,15.60
2009,04,30,19,30,15.60
2009,04,30,19,31,15.60
2009,04,30,19,32,15.60
2009,04,30,19,33,15.60
2009,04,30,19,34,15.60
2009,04,30,19,35,15.60
2009,04,30,19,36,15.60
2009,04,30,19,37,15.60
